,,,PA_Meas_PMT16A,,PR_Meas_QMR101_102,,RH_Meas_QMH101,,SR_Meas_QMS101,,TA_Meas_QMH101,,GenWind,,GenWind,
date,time,status,PA,status,PR,status,RH,status,SR,status,TA,status,DirAvg,status,SpdAvg,
2010-12-27, 00:00:05,VALID,1002.61,VALID,0,INVALID,163.708,VALID,0,VALID,24.2273,VALID,230,VALID,0.108594,
2010-12-27, 00:01:04,VALID,1002.6,VALID,0,INVALID,163.708,VALID,0,VALID,24.2662,VALID,230,VALID,0,
2010-12-27, 00:02:05,VALID,1002.58,VALID,0,INVALID,163.678,VALID,0,VALID,24.2468,VALID,230,VALID,0.345703,
2010-12-27, 00:03:05,VALID,1002.57,VALID,0,INVALID,163.701,VALID,0,VALID,24.2662,VALID,230,VALID,0.129297,
2010-12-27, 00:04:05,VALID,1002.55,VALID,0,INVALID,163.693,VALID,0,VALID,24.2857,VALID,230,VALID,0.0273438,
2010-12-27, 00:05:05,VALID,1002.54,VALID,0,INVALID,163.701,VALID,0,VALID,24.2857,VALID,230,VALID,0,
2010-12-27, 00:06:05,VALID,1002.52,VALID,0,INVALID,163.678,VALID,0,VALID,24.3052,VALID,230,VALID,0.230859,
2010-12-27, 00:07:05,VALID,1002.5,VALID,0,INVALID,163.678,VALID,0,VALID,24.3052,VALID,261,VALID,0.173828,
2010-12-27, 00:08:05,VALID,1002.51,VALID,0,INVALID,163.662,VALID,0,VALID,24.3052,VALID,261,VALID,0.410937,
2010-12-27, 00:09:05,VALID,1002.48,VALID,0,INVALID,163.693,VALID,0,VALID,24.307,VALID,261,VALID,0.434766,
2010-12-27, 00:10:05,VALID,1002.45,VALID,0,INVALID,163.716,VALID,0,VALID,24.2486,VALID,261,VALID,0.191016,
2010-12-27, 00:11:05,VALID,1002.44,VALID,0,INVALID,163.708,VALID,0,VALID,24.1884,VALID,261,VALID,0.203125,
2010-12-27, 00:12:05,VALID,1002.43,VALID,0,INVALID,163.701,VALID,0,VALID,24.1689,VALID,261,VALID,0,
2010-12-27, 00:13:05,VALID,1002.42,VALID,0,INVALID,163.723,VALID,0,VALID,24.1494,VALID,261,VALID,0,
2010-12-27, 00:14:05,VALID,1002.4,VALID,0,INVALID,163.701,VALID,0.100563,VALID,24.13,VALID,261,VALID,0,
2010-12-27, 00:15:05,VALID,1002.41,VALID,0,INVALID,163.716,VALID,0,VALID,24.1123,VALID,261,VALID,0.0605469,
2010-12-27, 00:16:05,VALID,1002.39,VALID,0,INVALID,163.701,VALID,0,VALID,24.0503,VALID,261,VALID,0,
2010-12-27, 00:17:05,VALID,1002.36,VALID,0,INVALID,163.716,VALID,0,VALID,24.091,VALID,261,VALID,0.0015625,
2010-12-27, 00:18:05,VALID,1002.34,VALID,0,INVALID,163.708,VALID,0.100563,VALID,24.091,VALID,261,VALID,0.176953,
2010-12-27, 00:19:05,VALID,1002.35,VALID,0,INVALID,163.716,VALID,0.100563,VALID,24.0697,VALID,311,VALID,0.426172,
2010-12-27, 00:20:05,VALID,1002.33,VALID,0,INVALID,163.67,VALID,0,VALID,24.091,VALID,322,VALID,0.254297,
2010-12-27, 00:21:05,VALID,1002.32,VALID,0,INVALID,163.739,VALID,0,VALID,24.091,VALID,328,VALID,0.476172,
2010-12-27, 00:22:05,VALID,1002.29,VALID,0,INVALID,163.708,VALID,0,VALID,24.091,VALID,3,VALID,0.714453,
2010-12-27, 00:23:05,VALID,1002.3,VALID,0,INVALID,163.701,VALID,0,VALID,24.0716,VALID,2,VALID,0.688281,
2010-12-27, 00:24:05,VALID,1002.28,VALID,0,INVALID,163.723,VALID,0,VALID,24.0132,VALID,3,VALID,0.883594,
2010-12-27, 00:25:05,VALID,1002.3,VALID,0,INVALID,163.746,VALID,0.100563,VALID,23.9724,VALID,3,VALID,0.634766,
2010-12-27, 00:26:05,VALID,1002.26,VALID,0,INVALID,163.716,VALID,0,VALID,23.914,VALID,2,VALID,0.700781,
2010-12-27, 00:27:05,VALID,1002.28,VALID,0,INVALID,163.739,VALID,0.100563,VALID,23.9159,VALID,2,VALID,0.585938,
2010-12-27, 00:28:05,VALID,1002.3,VALID,0,INVALID,163.739,VALID,0,VALID,23.8964,VALID,2,VALID,0.578125,
2010-12-27, 00:29:05,VALID,1002.3,VALID,0,INVALID,163.731,VALID,0,VALID,23.8556,VALID,2,VALID,0.507813,
2010-12-27, 00:30:05,VALID,1002.32,VALID,0,INVALID,163.731,VALID,0,VALID,23.8575,VALID,2,VALID,0.614062,
2010-12-27, 00:31:05,VALID,1002.3,VALID,0,INVALID,163.716,VALID,0,VALID,23.8167,VALID,2,VALID,0.360938,
2010-12-27, 00:32:05,VALID,1002.3,VALID,0,INVALID,163.731,VALID,0,VALID,23.8185,VALID,2,VALID,0.275781,
2010-12-27, 00:33:05,VALID,1002.28,VALID,0,INVALID,163.723,VALID,0,VALID,23.838,VALID,2,VALID,0.428906,
2010-12-27, 00:34:05,VALID,1002.27,VALID,0,INVALID,163.708,VALID,0.100563,VALID,23.838,VALID,2,VALID,0.411719,
2010-12-27, 00:35:05,VALID,1002.28,VALID,0,INVALID,163.731,VALID,0.100563,VALID,23.8167,VALID,2,VALID,0.452344,
2010-12-27, 00:36:05,VALID,1002.27,VALID,0,INVALID,163.746,VALID,0.100563,VALID,23.7991,VALID,2,VALID,0.527734,
2010-12-27, 00:37:05,VALID,1002.28,VALID,0,INVALID,163.723,VALID,0.100563,VALID,23.8185,VALID,2,VALID,0.378906,
2010-12-27, 00:38:05,VALID,1002.3,VALID,0,INVALID,163.739,VALID,0,VALID,23.7991,VALID,2,VALID,0.400781,
2010-12-27, 00:39:05,VALID,1002.29,VALID,0,INVALID,163.754,VALID,0,VALID,23.7973,VALID,2,VALID,0.272266,
2010-12-27, 00:40:05,VALID,1002.28,VALID,0,INVALID,163.746,VALID,0,VALID,23.8009,VALID,2,VALID,0.231641,
2010-12-27, 00:41:05,VALID,1002.27,VALID,0,INVALID,163.731,VALID,0,VALID,23.7601,VALID,2,VALID,0.237891,
2010-12-27, 00:42:05,VALID,1002.26,VALID,0,INVALID,163.746,VALID,0,VALID,23.7814,VALID,2,VALID,0.226172,
2010-12-27, 00:43:05,VALID,1002.26,VALID,0,INVALID,163.754,VALID,0,VALID,23.7619,VALID,2,VALID,0.328906,
2010-12-27, 00:44:05,VALID,1002.24,VALID,0,INVALID,163.731,VALID,0,VALID,23.7814,VALID,2,VALID,0.157422,
2010-12-27, 00:45:05,VALID,1002.21,VALID,0,INVALID,163.739,VALID,0,VALID,23.7814,VALID,2,VALID,0.173438,
2010-12-27, 00:46:05,VALID,1002.22,VALID,0,INVALID,163.731,VALID,0,VALID,23.8009,VALID,2,VALID,0,
2010-12-27, 00:47:05,VALID,1002.2,VALID,0,INVALID,163.762,VALID,0,VALID,23.8009,VALID,2,VALID,0,
2010-12-27, 00:48:05,VALID,1002.18,VALID,0,INVALID,163.739,VALID,0,VALID,23.7601,VALID,2,VALID,0.319141,
2010-12-27, 00:49:05,VALID,1002.18,VALID,0,INVALID,163.739,VALID,0,VALID,23.8027,VALID,2,VALID,0.413672,
2010-12-27, 00:50:05,VALID,1002.13,VALID,0,INVALID,163.708,VALID,0.100563,VALID,23.7796,VALID,2,VALID,0.411328,
2010-12-27, 00:51:05,VALID,1002.12,VALID,0,INVALID,163.739,VALID,0,VALID,23.7796,VALID,2,VALID,0.571484,
2010-12-27, 00:52:05,VALID,1002.09,VALID,0,INVALID,163.739,VALID,0,VALID,23.8185,VALID,2,VALID,0.509375,
2010-12-27, 00:53:05,VALID,1002.09,VALID,0,INVALID,163.716,VALID,0,VALID,23.7991,VALID,2,VALID,0.505078,
2010-12-27, 00:54:05,VALID,1002.09,VALID,0,INVALID,163.731,VALID,0,VALID,23.7796,VALID,2,VALID,0.364062,
2010-12-27, 00:55:05,VALID,1002.08,VALID,0,INVALID,163.723,VALID,0.100563,VALID,23.7601,VALID,2,VALID,0.425781,
2010-12-27, 00:56:05,VALID,1002.04,VALID,0,INVALID,163.731,VALID,0,VALID,23.7194,VALID,2,VALID,0.366406,
2010-12-27, 00:57:05,VALID,1002.04,VALID,0,INVALID,163.754,VALID,0.100563,VALID,23.7389,VALID,2,VALID,0.346484,
2010-12-27, 00:58:05,VALID,1002,VALID,0,INVALID,163.723,VALID,0.100563,VALID,23.7407,VALID,2,VALID,0.103906,
2010-12-27, 00:59:05,VALID,1001.99,VALID,0,INVALID,163.739,VALID,0,VALID,23.7212,VALID,1,VALID,0.256641,
2010-12-27, 01:00:05,VALID,1001.96,VALID,0,INVALID,163.762,VALID,0.100563,VALID,23.7407,VALID,360,VALID,0.411719,
2010-12-27, 01:01:05,VALID,1001.97,VALID,0,INVALID,163.708,VALID,0,VALID,23.7212,VALID,360,VALID,0.169531,
2010-12-27, 01:02:05,VALID,1001.96,VALID,0,INVALID,163.723,VALID,0.100563,VALID,23.7407,VALID,360,VALID,0.0917969,
2010-12-27, 01:03:05,VALID,1001.92,VALID,0,INVALID,163.731,VALID,0,VALID,23.7601,VALID,360,VALID,0.0171875,
2010-12-27, 01:04:05,VALID,1001.89,VALID,0,INVALID,163.739,VALID,0.100563,VALID,23.7601,VALID,360,VALID,0,
2010-12-27, 01:05:05,VALID,1001.87,VALID,0,INVALID,163.708,VALID,0.100563,VALID,23.7796,VALID,360,VALID,0.328125,
2010-12-27, 01:06:05,VALID,1001.85,VALID,0,INVALID,163.716,VALID,0,VALID,23.8185,VALID,360,VALID,0.217969,
2010-12-27, 01:07:05,VALID,1001.85,VALID,0,INVALID,163.723,VALID,0,VALID,23.8398,VALID,360,VALID,0.0140625,
2010-12-27, 01:08:05,VALID,1001.85,VALID,0,INVALID,163.731,VALID,0,VALID,23.8167,VALID,360,VALID,0,
2010-12-27, 01:09:05,VALID,1001.84,VALID,0,INVALID,163.723,VALID,0,VALID,23.838,VALID,360,VALID,0,
2010-12-27, 01:10:05,VALID,1001.87,VALID,0,INVALID,163.731,VALID,0,VALID,23.8362,VALID,360,VALID,0,
2010-12-27, 01:11:05,VALID,1001.86,VALID,0,INVALID,163.716,VALID,0.100563,VALID,23.8575,VALID,360,VALID,0,
2010-12-27, 01:12:05,VALID,1001.86,VALID,0,INVALID,163.731,VALID,0.100563,VALID,23.8556,VALID,360,VALID,0,
2010-12-27, 01:13:05,VALID,1001.81,VALID,0,INVALID,163.739,VALID,0.100563,VALID,23.8751,VALID,360,VALID,0,
2010-12-27, 01:14:05,VALID,1001.82,VALID,0,INVALID,163.708,VALID,0.100563,VALID,23.8946,VALID,360,VALID,0.245312,
2010-12-27, 01:15:05,VALID,1001.78,VALID,0,INVALID,163.708,VALID,0.100563,VALID,23.914,VALID,360,VALID,0.145313,
2010-12-27, 01:16:05,VALID,1001.79,VALID,0,INVALID,163.723,VALID,0,VALID,23.9548,VALID,360,VALID,0,
2010-12-27, 01:17:05,VALID,1001.79,VALID,0,INVALID,163.716,VALID,0.100563,VALID,23.914,VALID,360,VALID,0.241797,
2010-12-27, 01:18:05,VALID,1001.78,VALID,0,INVALID,163.723,VALID,0.100563,VALID,23.9159,VALID,360,VALID,0.187109,
2010-12-27, 01:19:05,VALID,1001.76,VALID,0,INVALID,163.723,VALID,0.100563,VALID,23.8556,VALID,360,VALID,0.00664063,
2010-12-27, 01:20:05,VALID,1001.77,VALID,0,INVALID,163.723,VALID,0.100563,VALID,23.8769,VALID,360,VALID,0,
2010-12-27, 01:21:05,VALID,1001.78,VALID,0,INVALID,163.731,VALID,0.100563,VALID,23.8575,VALID,360,VALID,0,
2010-12-27, 01:22:05,VALID,1001.76,VALID,0,INVALID,163.746,VALID,0.100563,VALID,23.838,VALID,360,VALID,0,
2010-12-27, 01:23:05,VALID,1001.74,VALID,0,INVALID,163.723,VALID,0,VALID,23.8185,VALID,360,VALID,0.326172,
2010-12-27, 01:24:05,VALID,1001.76,VALID,0,INVALID,163.723,VALID,0.100563,VALID,23.7583,VALID,360,VALID,0.240234,
2010-12-27, 01:25:05,VALID,1001.74,VALID,0,INVALID,163.739,VALID,0.100563,VALID,23.7601,VALID,360,VALID,0.263672,
2010-12-27, 01:26:05,VALID,1001.74,VALID,0,INVALID,163.739,VALID,0,VALID,23.7407,VALID,360,VALID,0.220703,
2010-12-27, 01:27:05,VALID,1001.72,VALID,0,INVALID,163.739,VALID,0.100563,VALID,23.7,VALID,360,VALID,0.109766,
2010-12-27, 01:28:05,VALID,1001.71,VALID,0,INVALID,163.739,VALID,0.100563,VALID,23.6823,VALID,360,VALID,0.164844,
2010-12-27, 01:29:05,VALID,1001.72,VALID,0,INVALID,163.762,VALID,0,VALID,23.7017,VALID,360,VALID,0.427734,
2010-12-27, 01:30:05,VALID,1001.7,VALID,0,INVALID,163.769,VALID,0.100563,VALID,23.7017,VALID,345,VALID,0.166797,
2010-12-27, 01:31:05,VALID,1001.69,VALID,0,INVALID,163.746,VALID,0.100563,VALID,23.7212,VALID,289,VALID,0.440625,
2010-12-27, 01:32:05,VALID,1001.67,VALID,0,INVALID,163.739,VALID,0,VALID,23.7,VALID,289,VALID,0,
2010-12-27, 01:33:05,VALID,1001.65,VALID,0,INVALID,163.769,VALID,0.100563,VALID,23.7194,VALID,304,VALID,0.601172,
2010-12-27, 01:34:05,VALID,1001.64,VALID,0,INVALID,163.739,VALID,0.100563,VALID,23.7407,VALID,358,VALID,0.580078,
2010-12-27, 01:35:05,VALID,1001.65,VALID,0,INVALID,163.731,VALID,0.100563,VALID,23.7017,VALID,358,VALID,0.607031,
2010-12-27, 01:36:05,VALID,1001.64,VALID,0,INVALID,163.762,VALID,0.100563,VALID,23.6628,VALID,358,VALID,0.6375,
2010-12-27, 01:37:05,VALID,1001.63,VALID,0,INVALID,163.746,VALID,0,VALID,23.6026,VALID,11,VALID,0.572656,
2010-12-27, 01:38:05,VALID,1001.61,VALID,0,INVALID,163.769,VALID,0,VALID,23.6044,VALID,19,VALID,0.474609,
2010-12-27, 01:39:05,VALID,1001.63,VALID,0,INVALID,163.754,VALID,0.100563,VALID,23.6044,VALID,19,VALID,0.184766,
2010-12-27, 01:40:05,VALID,1001.62,VALID,0,INVALID,163.762,VALID,0,VALID,23.5655,VALID,19,VALID,0.260156,
2010-12-27, 01:41:05,VALID,1001.58,VALID,0,INVALID,163.762,VALID,0,VALID,23.546,VALID,19,VALID,0.0535156,
2010-12-27, 01:42:05,VALID,1001.57,VALID,0,INVALID,163.746,VALID,0,VALID,23.546,VALID,19,VALID,0.125781,
2010-12-27, 01:43:05,VALID,1001.57,VALID,0,INVALID,163.739,VALID,0,VALID,23.5478,VALID,19,VALID,0.23125,
2010-12-27, 01:44:05,VALID,1001.55,VALID,0,INVALID,163.784,VALID,0,VALID,23.5266,VALID,19,VALID,0.370313,
2010-12-27, 01:45:05,VALID,1001.53,VALID,0,INVALID,163.777,VALID,0,VALID,23.5673,VALID,19,VALID,0.48125,
2010-12-27, 01:46:05,VALID,1001.51,VALID,0,INVALID,163.746,VALID,0,VALID,23.5868,VALID,19,VALID,0.383203,
2010-12-27, 01:47:05,VALID,1001.49,VALID,0,INVALID,163.769,VALID,0,VALID,23.5673,VALID,19,VALID,0.476172,
2010-12-27, 01:48:05,VALID,1001.43,VALID,0,INVALID,163.762,VALID,0,VALID,23.5266,VALID,19,VALID,0.388281,
2010-12-27, 01:49:05,VALID,1001.44,VALID,0,INVALID,163.777,VALID,0,VALID,23.5266,VALID,19,VALID,0.303516,
2010-12-27, 01:50:05,VALID,1001.43,VALID,0,INVALID,163.754,VALID,0,VALID,23.5478,VALID,19,VALID,0.0273438,
2010-12-27, 01:51:05,VALID,1001.46,VALID,0,INVALID,163.769,VALID,0,VALID,23.546,VALID,19,VALID,0.306641,
2010-12-27, 01:52:05,VALID,1001.42,VALID,0,INVALID,163.754,VALID,0,VALID,23.5478,VALID,18,VALID,0.402344,
2010-12-27, 01:53:05,VALID,1001.39,VALID,0,INVALID,163.762,VALID,0,VALID,23.5266,VALID,350,VALID,0.171484,
2010-12-27, 01:54:05,VALID,1001.36,VALID,0,INVALID,163.746,VALID,0,VALID,23.546,VALID,350,VALID,0,
2010-12-27, 01:55:05,VALID,1001.33,VALID,0,INVALID,163.731,VALID,0.100563,VALID,23.5832,VALID,343,VALID,0.249609,
2010-12-27, 01:56:05,VALID,1001.28,VALID,0,INVALID,163.754,VALID,0.100563,VALID,23.6221,VALID,295,VALID,0.360938,
2010-12-27, 01:57:05,VALID,1001.24,VALID,0,INVALID,163.762,VALID,0.100563,VALID,23.6221,VALID,295,VALID,0.0667969,
2010-12-27, 01:58:05,VALID,1001.26,VALID,0,INVALID,163.739,VALID,0.100563,VALID,23.661,VALID,294,VALID,0.578906,
2010-12-27, 01:59:05,VALID,1001.2,VALID,0,INVALID,163.701,VALID,0.100563,VALID,23.7,VALID,285,VALID,0.50625,
2010-12-27, 02:00:05,VALID,1001.2,VALID,0,INVALID,163.716,VALID,0.100563,VALID,23.7601,VALID,284,VALID,0.325,
2010-12-27, 02:01:05,VALID,1001.17,VALID,0,INVALID,163.754,VALID,0.100563,VALID,23.7583,VALID,298,VALID,0.333984,
2010-12-27, 02:02:05,VALID,1001.11,VALID,0,INVALID,163.723,VALID,0.100563,VALID,23.7973,VALID,295,VALID,0.39375,
2010-12-27, 02:03:05,VALID,1001.07,VALID,0,INVALID,163.708,VALID,0.100563,VALID,23.8167,VALID,284,VALID,0.768359,
2010-12-27, 02:04:05,VALID,1001.04,VALID,0,INVALID,163.723,VALID,0.100563,VALID,23.8751,VALID,279,VALID,0.333203,
2010-12-27, 02:05:05,VALID,1001,VALID,0,INVALID,163.716,VALID,0.100563,VALID,23.9335,VALID,279,VALID,0.146484,
2010-12-27, 02:06:05,VALID,1001,VALID,0,INVALID,163.716,VALID,0.100563,VALID,23.9335,VALID,279,VALID,0,
2010-12-27, 02:07:05,VALID,1000.98,VALID,0,INVALID,163.708,VALID,0.100563,VALID,23.9724,VALID,271,VALID,0.602344,
2010-12-27, 02:08:05,VALID,1001,VALID,0,INVALID,163.731,VALID,0.100563,VALID,23.9919,VALID,324,VALID,0.575,
2010-12-27, 02:09:05,VALID,1001,VALID,0,INVALID,163.723,VALID,0.100563,VALID,24.0114,VALID,350,VALID,0.583203,
2010-12-27, 02:10:05,VALID,1001.05,VALID,0,INVALID,163.723,VALID,0,VALID,24.0716,VALID,345,VALID,0.614844,
2010-12-27, 02:11:05,VALID,1001.07,VALID,0,INVALID,163.701,VALID,0,VALID,24.091,VALID,339,VALID,1.10352,
2010-12-27, 02:12:05,VALID,1001.08,VALID,0,INVALID,163.716,VALID,0.100563,VALID,24.1087,VALID,353,VALID,0.194922,
2010-12-27, 02:13:05,VALID,1001.11,VALID,0,INVALID,163.693,VALID,0.100563,VALID,24.1476,VALID,353,VALID,0.16875,
2010-12-27, 02:14:05,VALID,1001.11,VALID,0,INVALID,163.716,VALID,0,VALID,24.1671,VALID,353,VALID,0.425,
2010-12-27, 02:15:05,VALID,1001.16,VALID,0,INVALID,163.716,VALID,0,VALID,24.1671,VALID,353,VALID,0.410156,
2010-12-27, 02:16:05,VALID,1001.15,VALID,0,INVALID,163.731,VALID,0,VALID,24.1671,VALID,353,VALID,0.470703,
2010-12-27, 02:17:05,VALID,1001.16,VALID,0,INVALID,163.739,VALID,0,VALID,24.1865,VALID,353,VALID,0.478125,
2010-12-27, 02:18:05,VALID,1001.18,VALID,0,INVALID,163.701,VALID,0,VALID,24.2078,VALID,352,VALID,0.326953,
2010-12-27, 02:19:05,VALID,1001.17,VALID,0,INVALID,163.701,VALID,0,VALID,24.2255,VALID,352,VALID,0.269141,
2010-12-27, 02:20:05,VALID,1001.19,VALID,0,INVALID,163.701,VALID,0.100563,VALID,24.2468,VALID,354,VALID,0.838281,
2010-12-27, 02:21:05,VALID,1001.16,VALID,0,INVALID,163.685,VALID,0.100563,VALID,24.2662,VALID,352,VALID,0.691797,
2010-12-27, 02:22:05,VALID,1001.17,VALID,0,INVALID,163.685,VALID,0,VALID,24.2857,VALID,339,VALID,0.581641,
2010-12-27, 02:23:05,VALID,1001.18,VALID,0,INVALID,163.693,VALID,0.100563,VALID,24.2857,VALID,337,VALID,0.0277344,
2010-12-27, 02:24:05,VALID,1001.18,VALID,0,INVALID,163.685,VALID,0.100563,VALID,24.3052,VALID,295,VALID,0.321875,
2010-12-27, 02:25:05,VALID,1001.17,VALID,0,INVALID,163.701,VALID,0.100563,VALID,24.2839,VALID,295,VALID,0.202734,
2010-12-27, 02:26:05,VALID,1001.21,VALID,0,INVALID,163.708,VALID,0.100563,VALID,24.2839,VALID,352,VALID,0.466016,
2010-12-27, 02:27:05,VALID,1001.22,VALID,0,INVALID,163.693,VALID,0.100563,VALID,24.3033,VALID,349,VALID,0.509766,
2010-12-27, 02:28:05,VALID,1001.23,VALID,0,INVALID,163.716,VALID,0.100563,VALID,24.3228,VALID,348,VALID,0.530078,
2010-12-27, 02:29:05,VALID,1001.28,VALID,0,INVALID,163.693,VALID,0,VALID,24.3422,VALID,9,VALID,0.567969,
2010-12-27, 02:30:05,VALID,1001.28,VALID,0,INVALID,163.708,VALID,0.100563,VALID,24.3441,VALID,20,VALID,0.476953,
2010-12-27, 02:31:05,VALID,1001.26,VALID,0,INVALID,163.693,VALID,0.100563,VALID,24.3033,VALID,20,VALID,0.329688,
2010-12-27, 02:32:05,VALID,1001.31,VALID,0,INVALID,163.708,VALID,0.100563,VALID,24.2644,VALID,20,VALID,0.259375,
2010-12-27, 02:33:05,VALID,1001.3,VALID,0,INVALID,163.678,VALID,0.100563,VALID,24.2857,VALID,20,VALID,0.304297,
2010-12-27, 02:34:05,VALID,1001.32,VALID,0,INVALID,163.716,VALID,0.100563,VALID,24.2468,VALID,20,VALID,0.230078,
2010-12-27, 02:35:04,VALID,1001.3,VALID,0,INVALID,163.708,VALID,0.100563,VALID,24.206,VALID,20,VALID,0.389844,
2010-12-27, 02:36:04,VALID,1001.28,VALID,0,INVALID,163.708,VALID,0.100563,VALID,24.1671,VALID,20,VALID,0.226953,
2010-12-27, 02:37:04,VALID,1001.31,VALID,0,INVALID,163.701,VALID,0.100563,VALID,24.1902,VALID,20,VALID,0.389844,
2010-12-27, 02:38:04,VALID,1001.31,VALID,0,INVALID,163.708,VALID,0.100563,VALID,24.1281,VALID,54,VALID,0.382813,
2010-12-27, 02:39:04,VALID,1001.31,VALID,0,INVALID,163.708,VALID,0.100563,VALID,24.0892,VALID,54,VALID,0.259766,
2010-12-27, 02:40:04,VALID,1001.3,VALID,0,INVALID,163.716,VALID,0,VALID,24.0716,VALID,54,VALID,0.342578,
2010-12-27, 02:41:04,VALID,1001.27,VALID,0,INVALID,163.723,VALID,0,VALID,24.0326,VALID,54,VALID,0.181641,
2010-12-27, 02:42:04,VALID,1001.26,VALID,0,INVALID,163.701,VALID,0,VALID,23.9937,VALID,54,VALID,0.2125,
2010-12-27, 02:43:04,VALID,1001.22,VALID,0,INVALID,163.708,VALID,0,VALID,23.9937,VALID,54,VALID,0.0804688,
2010-12-27, 02:44:04,VALID,1001.22,VALID,0,INVALID,163.731,VALID,0,VALID,23.9548,VALID,54,VALID,0.259766,
2010-12-27, 02:45:04,VALID,1001.17,VALID,0,INVALID,163.739,VALID,0,VALID,23.9353,VALID,54,VALID,0.329688,
2010-12-27, 02:46:04,VALID,1001.17,VALID,0,INVALID,163.739,VALID,0,VALID,23.9371,VALID,10,VALID,0.421484,
2010-12-27, 02:47:04,VALID,1001.12,VALID,0,INVALID,163.723,VALID,0,VALID,23.9177,VALID,304,VALID,0,
2010-12-27, 02:48:04,VALID,1001.08,VALID,0,INVALID,163.746,VALID,0,VALID,23.9177,VALID,304,VALID,0,
2010-12-27, 02:49:04,VALID,1001.09,VALID,0,INVALID,163.701,VALID,0,VALID,23.8769,VALID,304,VALID,0.01875,
2010-12-27, 02:50:04,VALID,1001.1,VALID,0,INVALID,163.739,VALID,0,VALID,23.8769,VALID,304,VALID,0.211719,
2010-12-27, 02:51:04,VALID,1001.08,VALID,0,INVALID,163.716,VALID,0,VALID,23.8982,VALID,304,VALID,0.116016,
2010-12-27, 02:52:04,VALID,1001.07,VALID,0,INVALID,163.762,VALID,0,VALID,23.8787,VALID,304,VALID,0,
2010-12-27, 02:53:04,VALID,1001.07,VALID,0,INVALID,163.739,VALID,0,VALID,23.8787,VALID,304,VALID,0.0953125,
2010-12-27, 02:54:04,VALID,1001.13,VALID,0,INVALID,163.746,VALID,0,VALID,23.838,VALID,304,VALID,0,
2010-12-27, 02:55:04,VALID,1001.15,VALID,0,INVALID,163.754,VALID,0,VALID,23.8575,VALID,69,VALID,0.568359,
2010-12-27, 02:56:04,VALID,1001.14,VALID,0,INVALID,163.723,VALID,0.100563,VALID,23.838,VALID,70,VALID,0.55,
2010-12-27, 02:57:04,VALID,1001.15,VALID,0,INVALID,163.723,VALID,0,VALID,23.838,VALID,72,VALID,0.53125,
2010-12-27, 02:58:04,VALID,1001.15,VALID,0,INVALID,163.731,VALID,0.100563,VALID,23.8185,VALID,77,VALID,0.437109,
2010-12-27, 02:59:04,VALID,1001.13,VALID,0,INVALID,163.716,VALID,0,VALID,23.8185,VALID,77,VALID,0.380469,
2010-12-27, 03:00:04,VALID,1001.11,VALID,0,INVALID,163.739,VALID,0,VALID,23.7778,VALID,77,VALID,0,
2010-12-27, 03:01:04,VALID,1001.09,VALID,0,INVALID,163.731,VALID,0,VALID,23.7991,VALID,77,VALID,0,
2010-12-27, 03:02:04,VALID,1001.1,VALID,0,INVALID,163.739,VALID,0,VALID,23.7796,VALID,77,VALID,0,
2010-12-27, 03:03:04,VALID,1001.07,VALID,0,INVALID,163.739,VALID,0.100563,VALID,23.7583,VALID,77,VALID,0,
2010-12-27, 03:04:04,VALID,1001.07,VALID,0,INVALID,163.723,VALID,0,VALID,23.7796,VALID,77,VALID,0.0964844,
2010-12-27, 03:05:04,VALID,1001.06,VALID,0,INVALID,163.762,VALID,0.100563,VALID,23.7565,VALID,77,VALID,0.548437,
2010-12-27, 03:06:04,VALID,1001.1,VALID,0,INVALID,163.739,VALID,0,VALID,23.7778,VALID,43,VALID,0.707812,
2010-12-27, 03:07:04,VALID,1001.06,VALID,0,INVALID,163.723,VALID,0,VALID,23.7778,VALID,37,VALID,0.739844,
2010-12-27, 03:08:04,VALID,1001.12,VALID,0,INVALID,163.754,VALID,0.100563,VALID,23.7796,VALID,36,VALID,0.770312,
2010-12-27, 03:09:04,VALID,1001.13,VALID,0,INVALID,163.746,VALID,0.100563,VALID,23.7583,VALID,36,VALID,0.78125,
2010-12-27, 03:10:04,VALID,1001.16,VALID,0,INVALID,163.762,VALID,0,VALID,23.7583,VALID,36,VALID,0.564844,
2010-12-27, 03:11:04,VALID,1001.13,VALID,0,INVALID,163.739,VALID,0.100563,VALID,23.7991,VALID,36,VALID,0.480469,
2010-12-27, 03:12:04,VALID,1001.17,VALID,0,INVALID,163.716,VALID,0,VALID,23.7991,VALID,36,VALID,0.326172,
2010-12-27, 03:13:04,VALID,1001.17,VALID,0,INVALID,163.731,VALID,0,VALID,23.7778,VALID,36,VALID,0.365625,
2010-12-27, 03:14:04,VALID,1001.15,VALID,0,INVALID,163.746,VALID,0.100563,VALID,23.7778,VALID,36,VALID,0.265234,
2010-12-27, 03:15:04,VALID,1001.15,VALID,0,INVALID,163.708,VALID,0,VALID,23.7778,VALID,36,VALID,0.2125,
2010-12-27, 03:16:04,VALID,1001.15,VALID,0,INVALID,163.723,VALID,0,VALID,23.7778,VALID,36,VALID,0.212891,
2010-12-27, 03:17:04,VALID,1001.15,VALID,0,INVALID,163.701,VALID,0,VALID,23.7778,VALID,36,VALID,0.324219,
2010-12-27, 03:18:04,VALID,1001.18,VALID,0,INVALID,163.716,VALID,0,VALID,23.8185,VALID,36,VALID,0.35,
2010-12-27, 03:19:04,VALID,1001.18,VALID,0,INVALID,163.723,VALID,0,VALID,23.7973,VALID,36,VALID,0.471875,
2010-12-27, 03:20:04,VALID,1001.16,VALID,0,INVALID,163.723,VALID,0,VALID,23.7973,VALID,36,VALID,0.460547,
2010-12-27, 03:21:04,VALID,1001.2,VALID,0,INVALID,163.731,VALID,0.100563,VALID,23.8185,VALID,36,VALID,0.336719,
2010-12-27, 03:22:04,VALID,1001.17,VALID,0,INVALID,163.716,VALID,0,VALID,23.8167,VALID,36,VALID,0.287109,
2010-12-27, 03:23:04,VALID,1001.19,VALID,0,INVALID,163.731,VALID,0,VALID,23.8167,VALID,36,VALID,0.1875,
2010-12-27, 03:24:04,VALID,1001.21,VALID,0,INVALID,163.739,VALID,0.100563,VALID,23.838,VALID,36,VALID,0.0832031,
2010-12-27, 03:25:04,VALID,1001.19,VALID,0,INVALID,163.739,VALID,0,VALID,23.8398,VALID,36,VALID,0,
2010-12-27, 03:26:04,VALID,1001.28,VALID,0,INVALID,163.746,VALID,0,VALID,23.8398,VALID,36,VALID,0,
2010-12-27, 03:27:04,VALID,1001.28,VALID,0,INVALID,163.731,VALID,0,VALID,23.7991,VALID,36,VALID,0.103516,
2010-12-27, 03:28:04,VALID,1001.28,VALID,0,INVALID,163.708,VALID,0,VALID,23.8398,VALID,36,VALID,0.197266,
2010-12-27, 03:29:04,VALID,1001.32,VALID,0,INVALID,163.739,VALID,0,VALID,23.8398,VALID,44,VALID,0.449609,
2010-12-27, 03:30:04,VALID,1001.34,VALID,0,INVALID,163.723,VALID,0,VALID,23.8185,VALID,44,VALID,0.300781,
2010-12-27, 03:31:04,VALID,1001.35,VALID,0,INVALID,163.746,VALID,0,VALID,23.8398,VALID,47,VALID,0.467578,
2010-12-27, 03:32:04,VALID,1001.35,VALID,0,INVALID,163.731,VALID,0,VALID,23.8398,VALID,67,VALID,0.505859,
2010-12-27, 03:33:04,VALID,1001.38,VALID,0,INVALID,163.716,VALID,0,VALID,23.8398,VALID,67,VALID,0.489062,
2010-12-27, 03:34:04,VALID,1001.4,VALID,0,INVALID,163.754,VALID,0,VALID,23.8185,VALID,67,VALID,0.546484,
2010-12-27, 03:35:04,VALID,1001.37,VALID,0,INVALID,163.723,VALID,0,VALID,23.8398,VALID,67,VALID,0.355469,
2010-12-27, 03:36:04,VALID,1001.39,VALID,0,INVALID,163.731,VALID,0,VALID,23.8185,VALID,67,VALID,0.278906,
2010-12-27, 03:37:04,VALID,1001.41,VALID,0,INVALID,163.731,VALID,0,VALID,23.8185,VALID,67,VALID,0.130859,
2010-12-27, 03:38:04,VALID,1001.41,VALID,0,INVALID,163.723,VALID,0,VALID,23.8398,VALID,67,VALID,0.213281,